[[{"header":{"parameterUnit":"m.s-1","parameterCategory":1,"la1":30.2991,"la2":30.254,"lo1":-89.0895,"lo2":-89.0444,"dy":0.0017,"dx":0.0017,"nx":28,"ny":28,"refTime":"2023-10-08T21:00:00:Z","depth":0,"parameterNumber":2,"parameterNumberName":"U-component_of_WINDS"},"data":[0,0,0,0,0,0,0,0,0,0,0,0,0,0,0,0,0,0,0,0,0,0,0,0,0,0,0,0,0,0,0,0,0,0,0,0,0,0,0,0,0,0,0,0,0,0,0,0,0,0,0,0,0,0,0,0,0,0,-0.8669,-0.867,0,-0.8771,-0.8772,-0.8773,-0.8825,-0.8825,-0.8826,-0.8826,-0.8926,-0.8928,-0.8931,0,0,0,0,0,0,0,0,0,0,0,0,0,-0.8515,-0.8517,-0.8669,-0.867,-0.8671,-0.877,-0.8772,-0.8773,-0.8825,-0.8825,-0.8826,-0.8826,-0.8925,-0.8928,-0.8931,0,0,0,0,0,0,0,0,0,0,0,0,0,-0.8595,-0.8518,-0.8669,-0.8709,-0.8714,-0.877,-0.8772,-0.8774,-0.8825,-0.8825,-0.8826,-0.8826,-0.8924,-0.8928,-0.8932,-0.8954,0,0,-0.8944,-0.8945,0,0,0,0,0,0,0,0,-0.8591,-0.8601,-0.8702,-0.8707,-0.8712,-0.8786,-0.8754,-0.8834,-0.8825,-0.8783,-0.8826,-0.8826,-0.8879,-0.8886,-0.8905,-0.8959,-0.8963,-0.8944,-0.8946,-0.8948,-0.8949,0,0,0,0,0,0,0,-0.8585,-0.8597,-0.8709,-0.8703,-0.871,-0.8721,-0.8733,-0.877,-0.8829,-0.8787,-0.8791,-0.8802,-0.8882,-0.8901,-0.8908,-0.8964,-0.8944,-0.8947,-0.895,-0.8951,-0.9039,-0.9039,0,0,0,0,0,0,-0.8573,-0.8592,-0.8706,-0.8712,-0.865,-0.8724,-0.8737,-0.8762,-0.8829,-0.8839,-0.8802,-0.8804,-0.8895,-0.8903,-0.8912,-0.8941,-0.8948,-0.8952,-0.8954,-0.9039,-0.9039,-0.9039,0,0,0,0,0,0,-0.857,-0.8583,-0.8702,-0.8653,-0.8669,-0.8726,-0.8754,-0.8764,-0.8784,-0.884,-0.8851,-0.8812,-0.8895,-0.8906,-0.8943,-0.8945,-0.8953,-0.8957,-0.9039,-0.9039,-0.9039,-0.9001,0,0,0,0,0,0,-0.8565,-0.8582,-0.8592,-0.8653,-0.8671,-0.8733,-0.8754,-0.8766,-0.8791,-0.8795,-0.8852,-0.8862,-0.8896,-0.8937,-0.8947,-0.8951,-0.896,-0.9039,-0.9039,-0.9039,-0.9002,-0.8999,-0.8997,0,0,0,0,0,-0.856,-0.8577,-0.8592,-0.8606,-0.8686,-0.8733,-0.8743,-0.8783,-0.8791,-0.8801,-0.8837,-0.886,-0.8943,-0.894,-0.8952,-0.8957,-0.9039,-0.9039,-0.9039,-0.9003,-0.9,-0.8997,0,0,0,0,0,0,-0.8514,-0.8586,-0.8604,-0.8641,-0.868,-0.8741,-0.8756,-0.8779,-0.8816,-0.8818,-0.8864,-0.8877,-0.8909,-0.8937,-0.8932,-0.8981,-0.8993,-0.8996,-0.8962,-0.896,-0.8957,-0.895,-0.8963,0,0,0,0,0,-0.8508,-0.8541,-0.8602,-0.8629,-0.8648,-0.8698,-0.872,-0.8747,-0.8789,-0.8806,-0.8845,-0.8884,-0.8918,-0.8941,-0.8976,-0.9006,-0.9018,-0.9015,-0.9013,-0.901,-0.9012,-0.9028,-0.9027,-0.9039,-0.9039,-0.9039,0,0,-0.8496,-0.854,-0.8558,-0.8621,-0.8655,-0.8687,-0.8712,-0.8745,-0.8769,-0.8811,-0.8848,-0.8877,-0.8924,-0.8957,-0.8973,-0.8981,-0.9011,-0.901,-0.9008,-0.9011,-0.9028,-0.9027,-0.9026,-0.9039,-0.9039,-0.9039,0,0,-0.8492,-0.8529,-0.8555,-0.8588,-0.8639,-0.8672,-0.8678,-0.8735,-0.8757,-0.8795,-0.8827,-0.8854,-0.8914,-0.8945,-0.8969,-0.8974,-0.8996,-0.8983,-0.8971,-0.8986,-0.8985,-0.8985,-0.8986,-0.8986,-0.8985,-0.8985,-0.8985,0,-0.8471,-0.8522,-0.8565,-0.8596,-0.8622,-0.8662,-0.8688,-0.8718,-0.8777,-0.8793,-0.8801,-0.8875,-0.8909,-0.8949,-0.895,-0.8968,-0.8976,-0.8978,-0.8982,-0.8982,-0.8982,-0.8984,-0.8984,-0.8983,-0.8983,-0.8983,-0.8983,0,-0.8493,-0.8528,-0.8543,-0.86,-0.8627,-0.8655,-0.8701,-0.8723,-0.8747,-0.8778,-0.8815,-0.8857,-0.8901,-0.8913,-0.8937,-0.8956,-0.8959,-0.8974,-0.8987,-0.8979,-0.8981,-0.8981,-0.898,-0.8981,-0.8981,-0.8982,0,0,-0.8465,-0.8544,-0.8548,-0.8574,-0.8632,-0.8659,-0.8687,-0.8731,-0.8749,-0.8787,-0.8812,-0.886,-0.8874,-0.8901,-0.8928,-0.8942,-0.8941,-0.8955,-0.8957,-0.895,-0.8964,-0.8952,-0.8952,-0.8956,-0.8956,-0.8957,-0.896,0,-0.8468,-0.8524,-0.8562,-0.8602,-0.8633,-0.8671,-0.8695,-0.8732,-0.8762,-0.8791,-0.8823,-0.8857,-0.8873,-0.8889,-0.8904,-0.8938,-0.8945,-0.8939,-0.8978,-0.8979,-0.8965,-0.8953,-0.8941,-0.8942,-0.8961,-0.8961,-0.8961,0,-0.848,-0.8519,-0.8562,-0.8615,-0.8629,-0.8651,-0.8693,-0.8722,-0.8764,-0.8784,-0.8813,-0.884,-0.887,-0.888,-0.8921,-0.8916,-0.8934,-0.8953,-0.8954,-0.8959,-0.897,-0.8958,-0.8944,-0.8943,-0.8963,-0.8963,-0.8962,0,-0.8454,-0.8516,-0.855,-0.857,-0.8633,-0.8648,-0.8674,-0.8716,-0.8739,-0.8776,-0.8791,-0.8829,-0.885,-0.8879,-0.8915,-0.8919,-0.8952,-0.8965,-0.8968,-0.8967,-0.8974,-0.8973,-0.8962,-0.8986,-0.8986,-0.8986,-0.8986,0,-0.8455,-0.8479,-0.8539,-0.8559,-0.8587,-0.863,-0.8656,-0.8685,-0.8722,-0.8747,-0.8781,-0.8804,-0.8851,-0.8879,-0.8907,-0.8936,-0.8946,-0.8962,-0.8969,-0.8959,-0.8957,-0.8971,-0.8972,-0.8986,-0.8986,-0.8986,-0.8986,0,-0.8431,-0.8472,-0.8511,-0.8566,-0.8581,-0.8599,-0.8646,-0.8666,-0.8697,-0.8728,-0.8738,-0.8786,-0.882,-0.8859,-0.8907,-0.8926,-0.8952,-0.8963,-0.8938,-0.8942,-0.8943,-0.8942,-0.8941,-0.8943,-0.8965,-0.8965,-0.8964,0,-0.8428,-0.8448,-0.8506,-0.8526,-0.8552,-0.8584,-0.8607,-0.8649,-0.8672,-0.872,-0.8734,-0.8771,-0.8803,-0.8856,-0.8894,-0.8929,-0.8941,-0.8938,-0.8947,-0.8935,-0.894,-0.8938,-0.894,-0.8936,-0.8935,-0.8935,-0.8935,0,-0.842,-0.8438,-0.8472,-0.8512,-0.854,-0.8573,-0.8607,-0.8621,-0.8669,-0.8693,-0.8729,-0.8754,-0.8802,-0.8838,-0.8878,-0.8903,-0.8926,-0.8931,-0.8934,-0.8924,-0.8908,-0.8916,-0.8931,-0.8931,-0.8932,-0.8932,-0.8932,-0.8932,-0.8406,-0.8425,-0.8468,-0.8504,-0.8534,-0.8565,-0.8587,-0.862,-0.8651,-0.8694,-0.8716,-0.8751,-0.879,-0.8846,-0.8871,-0.8898,-0.8905,-0.8909,-0.891,-0.891,-0.8907,-0.8904,-0.8905,-0.8905,-0.8905,-0.8906,-0.8906,0,-0.8399,-0.8428,-0.846,-0.8508,-0.8535,-0.8555,-0.8593,-0.8615,-0.8646,-0.8681,-0.8711,-0.8751,-0.8785,-0.8825,-0.8862,-0.8875,-0.8887,-0.8883,-0.8883,-0.8888,-0.8899,-0.8893,-0.8874,-0.8874,-0.8874,-0.8874,-0.8874,-0.8874,-0.8398,-0.8431,-0.8454,-0.8501,-0.853,-0.8565,-0.8585,-0.8613,-0.8641,-0.8685,-0.8714,-0.874,-0.8776,-0.8815,-0.8846,-0.8857,-0.8868,-0.8862,-0.8875,-0.8885,-0.8887,-0.889,-0.8885,-0.8864,-0.8864,-0.8863,-0.8862,-0.8862]},{"header":{"parameterUnit":"m.s-1","parameterCategory":1,"la1":30.2991,"la2":30.254,"lo1":-89.0895,"lo2":-89.0444,"dy":0.0017,"dx":0.0017,"nx":28,"ny":28,"refTime":"2023-10-08T21:00:00:Z","depth":0,"parameterNumber":3,"parameterNumberName":"V-component_of_WINDS"},"data":[0,0,0,0,0,0,0,0,0,0,0,0,0,0,0,0,0,0,0,0,0,0,0,0,0,0,0,0,0,0,0,0,0,0,0,0,0,0,0,0,0,0,0,0,0,0,0,0,0,0,0,0,0,0,0,0,0,0,-2.8435,-2.8436,0,-2.8543,-2.8545,-2.8546,-2.852,-2.8518,-2.8516,-2.8514,-2.8625,-2.8629,-2.8634,0,0,0,0,0,0,0,0,0,0,0,0,0,-2.8204,-2.8208,-2.8435,-2.8436,-2.8437,-2.8543,-2.8545,-2.8546,-2.852,-2.8518,-2.8515,-2.8513,-2.8623,-2.8629,-2.8635,0,0,0,0,0,0,0,0,0,0,0,0,0,-2.8308,-2.821,-2.8434,-2.8437,-2.8439,-2.8543,-2.8545,-2.8547,-2.8521,-2.8518,-2.8514,-2.8512,-2.8621,-2.8628,-2.8636,-2.8744,0,0,-2.8658,-2.8661,0,0,0,0,0,0,0,0,-2.8302,-2.8316,-2.8435,-2.8437,-2.8439,-2.8515,-2.8504,-2.8613,-2.8522,-2.849,-2.8514,-2.851,-2.8591,-2.86,-2.8628,-2.8749,-2.8754,-2.8659,-2.8663,-2.8666,-2.8668,0,0,0,0,0,0,0,-2.8295,-2.8311,-2.8478,-2.8437,-2.8439,-2.8433,-2.8444,-2.8524,-2.8556,-2.8492,-2.849,-2.8504,-2.8591,-2.8621,-2.863,-2.8755,-2.8659,-2.8665,-2.867,-2.8672,-2.897,-2.8973,0,0,0,0,0,0,-2.8286,-2.8305,-2.8474,-2.8481,-2.8361,-2.8439,-2.8452,-2.8494,-2.8555,-2.8562,-2.8506,-2.8502,-2.861,-2.8621,-2.8634,-2.8764,-2.8666,-2.8673,-2.8677,-2.8967,-2.8971,-2.8975,0,0,0,0,0,0,-2.8281,-2.8301,-2.847,-2.8393,-2.8414,-2.8447,-2.8494,-2.8497,-2.8527,-2.8566,-2.8572,-2.8531,-2.8608,-2.8623,-2.8716,-2.8768,-2.8677,-2.8683,-2.8963,-2.8968,-2.8973,-2.9026,0,0,0,0,0,0,-2.8275,-2.83,-2.8342,-2.8394,-2.8418,-2.8551,-2.8497,-2.8502,-2.854,-2.8535,-2.859,-2.8597,-2.8606,-2.8706,-2.8724,-2.8776,-2.8689,-2.8958,-2.8965,-2.8971,-2.902,-2.9032,-2.9043,0,0,0,0,0,-2.8267,-2.8352,-2.8344,-2.8364,-2.8471,-2.8554,-2.8568,-2.8577,-2.8544,-2.8586,-2.8611,-2.8595,-2.8759,-2.8715,-2.8736,-2.8791,-2.8955,-2.8963,-2.8971,-2.9014,-2.903,-2.9043,0,0,0,0,0,0,-2.8305,-2.8359,-2.835,-2.8456,-2.8501,-2.855,-2.8603,-2.8593,-2.8648,-2.8642,-2.8651,-2.8664,-2.8759,-2.8784,-2.8734,-2.8898,-2.8852,-2.8864,-2.8878,-2.8893,-2.8905,-2.8897,-2.8695,0,0,0,0,0,-2.8326,-2.8389,-2.8433,-2.8522,-2.8544,-2.857,-2.8606,-2.861,-2.8657,-2.8675,-2.8707,-2.8753,-2.8815,-2.8855,-2.8915,-2.9023,-2.9034,-2.9071,-2.9082,-2.9092,-2.9102,-2.9161,-2.9178,-2.9,-2.9,-2.9,0,0,-2.8369,-2.8407,-2.8446,-2.853,-2.8565,-2.863,-2.8586,-2.8657,-2.8705,-2.8686,-2.8776,-2.8801,-2.8852,-2.8953,-2.9,-2.8977,-2.9154,-2.9102,-2.9109,-2.9115,-2.9171,-2.9187,-2.9202,-2.9006,-2.9005,-2.9004,0,0,-2.8482,-2.8517,-2.8594,-2.863,-2.8684,-2.87,-2.8718,-2.8769,-2.8785,-2.8875,-2.8862,-2.8919,-2.9026,-2.9063,-2.9096,-2.9221,-2.9208,-2.924,-2.9301,-2.9358,-2.9372,-2.9385,-2.9429,-2.9445,-2.9251,-2.9251,-2.9251,0,-2.8529,-2.8627,-2.8635,-2.8707,-2.8744,-2.873,-2.8808,-2.8842,-2.8912,-2.8938,-2.8912,-2.9045,-2.9079,-2.9188,-2.9219,-2.9246,-2.9267,-2.9234,-2.937,-2.9382,-2.9394,-2.9436,-2.9453,-2.9254,-2.9254,-2.9254,-2.9253,0,-2.8682,-2.875,-2.8806,-2.8874,-2.8917,-2.8992,-2.9011,-2.9054,-2.9053,-2.9072,-2.9163,-2.9203,-2.927,-2.9296,-2.9297,-2.9406,-2.939,-2.9367,-2.9321,-2.9414,-2.9454,-2.947,-2.9259,-2.9258,-2.9257,-2.9256,0,0,-2.8822,-2.8893,-2.8914,-2.8944,-2.9002,-2.9054,-2.9128,-2.9193,-2.9229,-2.9278,-2.934,-2.943,-2.9408,-2.9446,-2.945,-2.95,-2.9596,-2.9471,-2.9472,-2.9492,-2.9718,-2.9735,-2.9754,-2.9588,-2.9591,-2.9594,-2.9714,0,-2.894,-2.9069,-2.9079,-2.9196,-2.9258,-2.9245,-2.9309,-2.9351,-2.9371,-2.9426,-2.9447,-2.9511,-2.9478,-2.9501,-2.955,-2.9574,-2.9642,-2.9566,-2.9645,-2.9648,-2.9633,-2.9775,-2.9793,-2.9905,-2.973,-2.9732,-2.9734,0,-2.9094,-2.9147,-2.927,-2.9319,-2.9345,-2.9403,-2.9462,-2.9516,-2.9563,-2.9574,-2.9615,-2.9612,-2.9687,-2.9638,-2.9742,-2.969,-2.9723,-2.974,-2.9744,-2.9752,-2.9697,-2.9786,-2.9941,-2.9958,-2.9759,-2.9757,-2.9755,0,-2.9183,-2.9286,-2.9372,-2.9399,-2.9457,-2.9498,-2.9524,-2.9568,-2.9607,-2.9659,-2.9684,-2.9744,-2.9778,-2.9824,-2.9838,-2.9801,-2.9941,-2.9893,-2.9952,-2.9951,-2.9982,-2.998,-3.0143,-3.0003,-3.0003,-3.0003,-3.0002,0,-2.9313,-2.9389,-2.9413,-2.9467,-2.9551,-2.9561,-2.9644,-2.9668,-2.9707,-2.9764,-2.9757,-2.9811,-2.9825,-2.9882,-2.9893,-2.9977,-2.9992,-3.0003,-3.0005,-3.0003,-3.0002,-3.0025,-3.0018,-3.0007,-3.0006,-3.0005,-3.0005,0,-2.9428,-2.9447,-2.954,-2.9588,-2.9602,-2.9662,-2.9702,-2.9753,-2.9771,-2.9844,-2.9862,-2.989,-2.9957,-2.9975,-3.0054,-3.0061,-3.016,-3.0155,-3.0144,-3.0144,-3.0202,-3.0196,-3.0386,-3.0411,-3.0255,-3.0256,-3.0257,0,-2.9509,-2.9567,-2.9621,-2.9659,-2.9686,-2.9748,-2.9787,-2.9798,-2.9839,-2.9897,-2.9941,-3.0006,-3.0059,-3.0166,-3.0193,-3.0254,-3.025,-3.0312,-3.0259,-3.0256,-3.0251,-3.0247,-3.0253,-3.0323,-3.0324,-3.0326,-3.0327,0,-2.9652,-2.9658,-2.9715,-2.9774,-2.9821,-2.9869,-2.9914,-2.9946,-2.9963,-3.0009,-3.0077,-3.0118,-3.0199,-3.0264,-3.0325,-3.0352,-3.0343,-3.0343,-3.036,-3.0359,-3.035,-3.0356,-3.0172,-3.0339,-3.0338,-3.0337,-3.0336,-3.0336,-2.9752,-2.9803,-2.9848,-2.9911,-2.9946,-2.9989,-3.0039,-3.0063,-3.012,-3.0187,-3.019,-3.0263,-3.0308,-3.0389,-3.042,-3.0477,-3.0458,-3.0483,-3.0489,-3.0495,-3.0499,-3.0341,-3.0488,-3.0488,-3.0488,-3.0487,-3.0487,0,-2.9894,-2.9923,-2.998,-3.0044,-3.0093,-3.008,-3.0129,-3.0172,-3.0236,-3.0279,-3.0331,-3.0408,-3.0471,-3.0504,-3.0566,-3.0606,-3.0603,-3.0622,-3.0619,-3.0625,-3.0513,-3.0492,-3.0623,-3.0623,-3.0623,-3.0623,-3.0623,-3.0623,-2.9974,-3.0059,-3.0071,-3.0173,-3.02,-3.0272,-3.0302,-3.0341,-3.0375,-3.0462,-3.0514,-3.0534,-3.0573,-3.0638,-3.0694,-3.0702,-3.0726,-3.0747,-3.0752,-3.0647,-3.0633,-3.062,-3.06,-3.0752,-3.0752,-3.086,-3.0861,-3.0861]}]]